Retour au catalogue

STARLINK-5244

ActifCommunicationsVLEO
NORAD 54199·PAYLOAD·🇺🇸 United States

Lancé Oct 28, 2022 depuis Vandenberg Space Force Base

Loading…

Prochains Passages (prochaines 24 heures)

TLE

FraisSource: CelesTrak SupGP

Époque: Sep 14, 2026, 21:40 UTC

1 54199C 22141AU  26257.90326389  .00014934  00000+0  42726-3 0  2571
2 54199  53.1581 214.0687 0001316 103.7383 319.4964 15.35392056    13

Suivez STARLINK-5244 en temps réel avec AllMySat

Download on the App Store